Location: Byhalia Creek
(34.8270°N, 89.8040°W)
Time: 08:30:16
(UTC+00:00)

CZ-2C R/B - Pass Details

Date: 22 April 2026
Orbit: 662 x 774 km, 98.5° (Epoch: 14 May)

Event Time Altitude Azimuth Distance (km) Brightness Sun altitude
Rises 09:30:46 0° 25° (NNE) 3,128 6.6 -21.0°
Reaches altitude 10° 09:33:19 10° 35° (NE) 2,184 5.8 -20.6°
Maximum altitude 09:37:30 30° 97° (E) 1,231 4.1 -19.8°
Drops below altitude 10° 09:41:34 10° 158° (SSE) 2,115 4.7 -19.1°
Enters shadow 09:43:55 - 169° (S) 2,984 5.4 -18.7°
